FW0980 Savannah GA US current weather conditions

sailwx.info

Wind from 199 at 1 knots gusting 4

Air temperature 25.0° C
Dewpoint 10.4° C

Last reported at 2019-Nov-11 20:00 UTC.
Time now 2019-Nov-11 20:54 UTC

Location: N 32°01' W 081°02'.
View on Google Maps.

See reports from other nearby stations

  
Tides and Currents Weather Stations Pressure Air Temp Water Temp Dewpoint Dewpoint Depression Visibility Wind Speed Wind Dir Waves Ship Positions
date/time (UTC)wind fromknots sea level pressurealtimeterstation pressurevisibilityair tempwater tempwave heightnotes
2019-Nov-11 20:00 199 1 gusting 4 25.0
2019-Nov-11 19:45 257 25.6
2019-Nov-11 19:33 175 26.1
2019-Nov-11 19:17 164 2 gusting 6 25.6
2019-Nov-11 19:00 185 26.7
2019-Nov-11 18:45 193 26.1
2019-Nov-11 18:30 261 1 gusting 6 25.6
2019-Nov-11 18:16 189 1 gusting 4 26.1
2019-Nov-11 18:00 190 1 gusting 5 25.6
2019-Nov-11 17:45 189 25.0
2019-Nov-11 17:30 182 0 gusting 2 25.6
2019-Nov-11 17:15 226 24.4
2019-Nov-11 16:46 279 0 gusting 2 23.9
2019-Nov-11 16:30 190 0 gusting 2 22.8
2019-Nov-11 16:16 076 21.7
2019-Nov-11 15:45 191 0 gusting 2 21.7
2019-Nov-11 15:30 284 20.0
2019-Nov-11 15:15 021 18.9
2019-Nov-11 14:47 277 16.1
2019-Nov-11 14:32 276 0 gusting 1 15.6
2019-Nov-11 14:17 334 14.4
2019-Nov-11 13:45 182 12.2
2019-Nov-11 13:31 182 11.1
2019-Nov-11 13:16 180 10.6
2019-Nov-11 13:00 180 9.4
2019-Nov-11 12:46 179 8.9
2019-Nov-11 12:31 179 8.3
2019-Nov-11 12:15 180 8.3
2019-Nov-11 11:45 180 7.8
2019-Nov-11 11:30 180 7.8
2019-Nov-11 11:15 180 7.8
2019-Nov-11 10:47 179 7.2
2019-Nov-11 10:33 179 7.2
2019-Nov-11 10:15 180 7.2
2019-Nov-11 09:47 180 7.2
2019-Nov-11 09:31 180 7.2
2019-Nov-11 09:17 180 7.2
2019-Nov-11 08:46 179 7.2
2019-Nov-11 08:31 179 7.2
2019-Nov-11 08:16 180 7.8
2019-Nov-11 07:46 179 7.8
2019-Nov-11 07:32 180 7.8
2019-Nov-11 07:18 179 8.3
2019-Nov-11 06:46 180 8.3
2019-Nov-11 06:32 180 8.9
2019-Nov-11 06:16 180 8.9
2019-Nov-11 06:00 180 8.9
2019-Nov-11 05:45 180 8.9
2019-Nov-11 05:31 179 8.9
2019-Nov-11 05:17 179 9.4
2019-Nov-11 05:00 180 9.4
2019-Nov-11 04:45 180 9.4
2019-Nov-11 04:31 179 9.4
2019-Nov-11 04:17 179 10.0
2019-Nov-11 04:00 179 10.0
2019-Nov-11 03:45 180 10.0
2019-Nov-11 03:31 179 10.0
2019-Nov-11 03:16 179 10.0
2019-Nov-11 03:01 180 9.4
2019-Nov-11 02:47 179 9.4
2019-Nov-11 02:32 179 9.4
2019-Nov-11 02:16 179 9.4
2019-Nov-11 02:00 179 10.0
2019-Nov-11 01:45 180 10.0
2019-Nov-11 01:32 180 10.0
2019-Nov-11 01:17 179 10.0
2019-Nov-11 00:46 179 10.6
2019-Nov-11 00:31 179 10.6
2019-Nov-11 00:16 179 11.1
2019-Nov-11 00:00 179 11.1
2019-Nov-10 23:47 179 11.7
2019-Nov-10 23:32 179 11.7
2019-Nov-10 23:16 179 12.2
2019-Nov-10 23:00 179 12.8
2019-Nov-10 22:45 179 13.9
2019-Nov-10 22:31 187 0 gusting 2 14.4
2019-Nov-10 22:15 187 15.0
2019-Nov-10 21:47 187 1 gusting 4 16.1
2019-Nov-10 21:15 156 17.8
2019-Nov-10 20:46 169 18.3
2019-Nov-10 20:31 147 18.9
2019-Nov-10 20:17 184 1 gusting 4 18.9
2019-Nov-10 19:46 007 0 gusting 2 19.4
2019-Nov-10 19:30 314 0 gusting 3 20.0
2019-Nov-10 19:15 068 1 gusting 3 18.9
2019-Nov-10 18:46 081 0 gusting 3 20.0
2019-Nov-10 18:35 068 0 gusting 2 20.0
2019-Nov-10 18:16 119 0 gusting 5 20.0
2019-Nov-10 17:46 236 0 gusting 3 19.4
2019-Nov-10 17:31 334 0 gusting 3 18.3
2019-Nov-10 17:16 079 18.9
2019-Nov-10 17:00 074 0 gusting 6 18.3
2019-Nov-10 16:45 062 1 gusting 4 17.8
2019-Nov-10 16:30 334 1 gusting 3 16.7
2019-Nov-10 16:15 310 0 gusting 4 16.7
2019-Nov-10 15:46 096 0 gusting 3 15.6
2019-Nov-10 15:31 007 0 gusting 5 15.0
2019-Nov-10 15:15 312 0 gusting 5 14.4
2019-Nov-10 14:46 044 12.8
2019-Nov-10 14:31 307 12.2
2019-Nov-10 14:16 061 0 gusting 3 11.7
2019-Nov-10 13:45 318 8.3
2019-Nov-10 13:30 330 0 gusting 3 7.2
2019-Nov-10 13:16 316 6.7
2019-Nov-10 12:47 205 5.6
2019-Nov-10 12:31 205 5.0
2019-Nov-10 12:15 205 4.4
2019-Nov-10 11:46 205 4.4
2019-Nov-10 11:32 205 4.4
2019-Nov-10 11:15 205 4.4
2019-Nov-10 10:46 205 4.4
2019-Nov-10 10:31 205 4.4
2019-Nov-10 10:17 205 4.4
2019-Nov-10 10:00 205 3.9
2019-Nov-10 09:45 205 4.4
2019-Nov-10 09:31 205 3.9
2019-Nov-10 09:17 205 4.4
2019-Nov-10 09:00 205 4.4
2019-Nov-10 08:45 205 4.4
2019-Nov-10 08:31 205 4.4
2019-Nov-10 08:16 205 4.4
2019-Nov-10 07:45 204 5.0
2019-Nov-10 07:31 204 5.0
2019-Nov-10 07:16 203 5.0
2019-Nov-10 06:46 204 5.6
2019-Nov-10 06:31 271 5.0
2019-Nov-10 06:16 337 5.0
2019-Nov-10 06:00 338 5.6
2019-Nov-10 05:46 338 5.6
2019-Nov-10 05:30 337 5.6
2019-Nov-10 05:16 338 6.1
2019-Nov-10 04:45 338 6.1
2019-Nov-10 04:19 337 6.7
2019-Nov-10 03:47 007 7.2
2019-Nov-10 03:32 324 7.2
2019-Nov-10 02:46 313 7.8
2019-Nov-10 02:31 314 7.8
2019-Nov-10 02:17 314 8.3
2019-Nov-10 02:00 324 8.3
2019-Nov-10 01:47 320 8.9
2019-Nov-10 01:32 095 8.9
2019-Nov-10 01:16 301 8.9
2019-Nov-10 00:47 310 9.4
2019-Nov-10 00:32 067 9.4
2019-Nov-10 00:15 337 9.4
2019-Nov-09 23:46 332 10.0
2019-Nov-09 23:32 301 10.0
2019-Nov-09 23:15 053 10.6
2019-Nov-09 22:46 336 11.1
2019-Nov-09 22:31 263 11.7
2019-Nov-09 22:15 262 12.2
2019-Nov-09 21:46 039 13.3
2019-Nov-09 21:32 039 0 gusting 3 13.9
2019-Nov-09 21:15 336 0 gusting 2 13.9
2019-Nov-09 20:46 326 0 gusting 2 14.4
2019-Nov-09 20:32 318 1 gusting 5 15.0
2019-Nov-09 20:15 031 1 gusting 4 15.6